This demonstration page uses our WeatherBlox Daily Observations layout. Learn more.

41.55636, -103.73856

Hourly Observations for April 7, 2019

Temp ( °F °C ) Dew Point ( °F °C ) Humidity (%) Winds ( mph kmh ) Pressure ( in mb ) Visibility ( mi km ) Precip ( " mm )
12:53 am 00:53 Clear 53 11.7 32 0 45 45 W 18 30 29.8 1009 10 16.09344 0 0
1:53 am 01:53 Clear 51 10.6 31 -0.6 46 46 WNW 12 19 29.83 1010 10 16.09344 0 0
2:53 am 02:53 Clear 49 9.4 31 -0.6 50 50 WNW 13 20 29.85 1011 10 16.09344 0 0
3:53 am 03:53 Clear 46 7.8 31 -0.6 56 56 W 9 15 29.88 1012 10 16.09344 0 0
4:53 am 04:53 Clear 44 6.7 30 -1.1 58 58 WNW 14 22 29.91 1013 10 16.09344 0 0
5:53 am 05:53 Clear 39 3.9 30 -1.1 70 70 NW 9 15 30 1016 10 16.09344 0 0
6:53 am 06:53 Sunny 39 3.9 30 -1.1 70 70 WNW 6 9 30.03 1017 10 16.09344 0 0
7:53 am 07:53 Sunny 45 7.2 31 -0.6 58 58 WNW 9 15 30.06 1018 10 16.09344 0 0
8:53 am 08:53 Sunny 51 10.6 30 -1.1 44 44 W 14 22 30.03 1017 10 16.09344 0 0
9:53 am 09:53 Sunny 57 13.9 30 -1.1 36 36 WNW 13 20 30.03 1017 10 16.09344 0 0
10:53 am 10:53 Sunny 61 16.1 28 -2.2 29 29 W 10 17 30 1016 10 16.09344 0 0
11:53 am 11:53 Sunny 65 18.3 27 -2.8 24 24 WSW 14 22 29.97 1015 10 16.09344 0 0
12:53 pm 12:53 Sunny 66 18.9 30 -1.1 26 26 W 14 22 29.94 1014 10 16.09344 0 0
1:53 pm 13:53 Sunny 69 20.6 30 -1.1 23 23 W 16 26 29.91 1013 10 16.09344 0 0
2:53 pm 14:53 Sunny 70 21.1 30 -1.1 23 23 W 12 19 29.88 1012 10 16.09344 0 0
3:53 pm 15:53 Sunny 73 22.8 27 -2.8 18 18 W 18 30 29.85 1011 10 16.09344 0 0
4:53 pm 16:53 Sunny 71 21.7 26 -3.3 19 19 W 24 39 29.85 1011 10 16.09344 0 0
5:53 pm 17:53 Sunny 68 20 27 -2.8 21 21 W 25 41 29.91 1013 10 16.09344 0 0
6:53 pm 18:53 Sunny 65 18.3 28 -2.2 25 25 W 15 24 29.91 1013 10 16.09344 0 0
7:53 pm 19:53 Clear 63 17.2 28 -2.2 27 27 W 20 31 29.91 1013 10 16.09344 0 0
8:53 pm 20:53 Clear 62 16.7 29 -1.7 29 29 W 17 28 29.91 1013 10 16.09344 0 0
9:53 pm 21:53 Clear 60 15.6 31 -0.6 33 33 W 12 19 29.91 1013 10 16.09344 0 0
10:53 pm 22:53 Clear 60 15.6 33 0.6 36 36 W 15 24 29.91 1013 10 16.09344 0 0
11:53 pm 23:53 Clear 58 14.4 33 0.6 39 39 W 13 20 29.91 1013 10 16.09344 0 0

Powered by AerisWeather